Weather History for Madera, CA

Change the Weather History Date:

Monday, June 10, 2013

  Actual Average Record
Temperature  
Mean Temperature 69 °F 73 °F  
Max Temperature 81 °F 89 °F 100 °F (2014)
Min Temperature 57 °F 57 °F 48 °F (1999)
Degree Days  
Heating Degree Days 0    
Month to date heating degree days 0  
Since 1 June heating degree days 0  
Since 1 July heating degree days 2301  
Cooling Degree Days 4    
Month to date cooling degree days 133  
Year to date cooling degree days 310  
Since 1 June cooling degree days 133  
Growing Degree Days 19 (Base 50)    
Moisture  
Dew Point 52 °F    
Average Humidity 59    
Maximum Humidity 86    
Minimum Humidity 32    
Precipitation  
Precipitation T in 0.01 in 0.14 in (1957)
Month to date precipitation T 0.15  
Year to date precipitation 3.52 7.96  
Since 1 July precipitation 8.22 11.98  
Snow  
Snow 0.00 in - - ()
Month to date snowfall 0.0  
Since 1 June snowfall 0.0  
Since 1 July snowfall 0.0  
Snow Depth 0.00 in    
Sea Level Pressure  
Sea Level Pressure 29.87 in    
Wind  
Wind Speed 7 mph (WNW)    
Max Wind Speed 17 mph    
Max Gust Speed 17 mph    
Visibility 10 miles    
Events Rain    
T = Trace of Precipitation, MM = Missing Value Source: NWS Daily Summary

Daily Weather History Graph

Daily Weather History Graph

Search for Another Location

Airport:

Trip Planner

Search our weather history database for the weather conditions in past years. The results will help you decide how hot, cold, wet, or windy it might be!

Date:

Astronomy

Jun. 10, 2013 Rise Set
Actual Time 5:40 AM PDT 8:19 PM PDT
Civil Twilight 5:09 AM PDT 8:50 PM PDT
Nautical Twilight 4:31 AM PDT 9:28 PM PDT
Astronomical Twilight 3:48 AM PDT 10:11 PM PDT
Moon 7:31 AM PDT (6/10) 9:52 PM PDT (6/10)
Length of Visible Light 15h 40m
Length of Day
14h 39m
Waxing Crescent, 4% of the Moon is Illuminated
Jun 10
Waxing Crescent
Jun 16
First Quarter
Jun 23
Full
Jun 29
Last Quarter
Jul 8
New

Hourly Weather History & Observations

Time (PDT) Temp. Dew Point Humidity Pressure Visibility Wind Dir Wind Speed Gust Speed Precip Events Conditions
12:53 AM 64.9 °F 53.1 °F 65% 29.78 in 10.0 mi North - - N/A   Clear
1:53 AM 62.1 °F 54.0 °F 75% 29.78 in 10.0 mi North - - N/A   Clear
2:53 AM 61.0 °F 53.1 °F 75% 29.78 in 10.0 mi North - - N/A   Clear
3:53 AM 60.1 °F 53.1 °F 78% 29.79 in 10.0 mi North - - N/A   Clear
4:53 AM 57.9 °F 53.1 °F 84% 29.81 in 10.0 mi North - - N/A   Clear
5:53 AM 57.0 °F 53.1 °F 87% 29.84 in 10.0 mi NW 3.5 mph - N/A   Clear
6:53 AM 59.0 °F 54.0 °F 83% 29.86 in 10.0 mi West 4.6 mph - N/A   Clear
7:53 AM 64.0 °F 52.0 °F 65% 29.88 in 10.0 mi WNW 9.2 mph - N/A   Scattered Clouds
8:53 AM 66.0 °F 52.0 °F 60% 29.90 in 10.0 mi NW 8.1 mph - N/A   Scattered Clouds
9:53 AM 69.1 °F 50.0 °F 51% 29.90 in 10.0 mi WNW 6.9 mph - N/A   Scattered Clouds
10:53 AM 72.0 °F 51.1 °F 48% 29.91 in 10.0 mi WNW 8.1 mph - N/A   Clear
11:53 AM 70.0 °F 53.1 °F 55% 29.91 in 10.0 mi NNW 11.5 mph - 0.00 in   Clear
12:53 PM 68.0 °F 53.1 °F 59% 29.92 in 10.0 mi NW 10.4 mph - 0.00 in Rain Light Rain
1:53 PM 75.0 °F 51.1 °F 43% 29.91 in 10.0 mi Calm Calm - 0.00 in   Clear
2:53 PM 79.0 °F 46.9 °F 32% 29.90 in 10.0 mi West 5.8 mph - N/A   Clear
3:53 PM 79.0 °F 51.1 °F 38% 29.90 in 10.0 mi WNW 5.8 mph - N/A   Clear
4:53 PM 80.1 °F 48.0 °F 32% 29.88 in 10.0 mi West 9.2 mph - N/A   Clear
5:53 PM 81.0 °F 48.9 °F 33% 29.87 in 10.0 mi NW 8.1 mph 17.3 mph N/A   Clear
6:53 PM 75.9 °F 53.1 °F 45% 29.86 in 10.0 mi WNW 3.5 mph - N/A   Partly Cloudy
7:53 PM 75.0 °F 54.0 °F 48% 29.87 in 10.0 mi NW 8.1 mph - 0.00 in   Clear
8:53 PM 70.0 °F 55.0 °F 59% 29.88 in 10.0 mi West 6.9 mph - N/A   Clear
9:53 PM 68.0 °F 55.9 °F 65% 29.90 in 10.0 mi NW 4.6 mph - N/A   Clear
10:53 PM 69.1 °F 53.1 °F 57% 29.90 in 10.0 mi North 6.9 mph - N/A   Clear
11:53 PM 64.0 °F 54.0 °F 70% 29.89 in 10.0 mi WNW 4.6 mph - N/A   Clear